Hourly Weather Qurghontepa

Today, 11 April, Sunday

Time Temperature Precipitation Wind Pressure Humidity
00:00 +13°C° 0 mm 3 mps 700 mmHg 39%
01:00 +12°C° 0 mm 3 mps 700 mmHg 40%
02:00 +12°C° 0 mm 3 mps 700 mmHg 40%
03:00 +12°C° 0 mm 3 mps 700 mmHg 40%
04:00 +11°C° 0 mm 3 mps 700 mmHg 41%
05:00 +11°C° 0 mm 3 mps 700 mmHg 41%
06:00 +13°C° 0 mm 3 mps 700 mmHg 38%
07:00 +14°C° 0 mm 3 mps 701 mmHg 36%
08:00 +17°C° 0 mm 2 mps 701 mmHg 34%
09:00 +19°C° 0 mm 2 mps 701 mmHg 31%
10:00 +20°C° 0 mm 2 mps 701 mmHg 28%
11:00 +23°C° 0 mm 2 mps 701 mmHg 25%
12:00 +24°C° 0 mm 3 mps 701 mmHg 25%
13:00 +24°C° 0 mm 3 mps 701 mmHg 25%
14:00 +25°C° 0 mm 4 mps 701 mmHg 24%
15:00 +25°C° 0 mm 3 mps 701 mmHg 25%
16:00 +24°C° 0 mm 3 mps 701 mmHg 25%
17:00 +24°C° 0 mm 2 mps 701 mmHg 25%
18:00 +21°C° 0 mm 2 mps 701 mmHg 30%
19:00 +20°C° 0 mm 2 mps 701 mmHg 36%
20:00 +18°C° 0 mm 3 mps 701 mmHg 41%
21:00 +17°C° 0 mm 2 mps 700 mmHg 44%
22:00 +16°C° 0 mm 2 mps 700 mmHg 46%
23:00 +15°C° 0 mm 2 mps 700 mmHg 49%

Tomorrow, 12 April, Monday

Time Temperature Precipitation Wind Pressure Humidity
00:00 +15°C° 0 mm 1 mps 700 mmHg 50%
01:00 +14°C° 0 mm 1 mps 700 mmHg 51%
02:00 +14°C° 0 mm 1 mps 700 mmHg 51%
03:00 +13°C° 0 mm 1 mps 700 mmHg 51%
04:00 +13°C° 0 mm 1 mps 700 mmHg 51%
05:00 +12°C° 0 mm 1 mps 700 mmHg 51%
06:00 +14°C° 0 mm 1 mps 700 mmHg 47%
07:00 +15°C° 0 mm 1 mps 701 mmHg 44%
08:00 +16°C° 0 mm 1 mps 701 mmHg 40%
09:00 +19°C° 0 mm 1 mps 701 mmHg 37%
10:00 +20°C° 0 mm 1 mps 701 mmHg 34%
11:00 +22°C° 0 mm 1 mps 701 mmHg 31%
12:00 +23°C° 0 mm 1 mps 701 mmHg 30%
13:00 +24°C° 0 mm 2 mps 700 mmHg 28%
14:00 +25°C° 0 mm 2 mps 700 mmHg 26%
15:00 +25°C° 0 mm 2 mps 700 mmHg 26%
16:00 +25°C° 0 mm 2 mps 700 mmHg 26%
17:00 +25°C° 0 mm 2 mps 699 mmHg 27%
18:00 +23°C° 0 mm 1 mps 699 mmHg 30%
19:00 +21°C° 0 mm 1 mps 699 mmHg 34%
20:00 +20°C° 0 mm 1 mps 699 mmHg 37%
21:00 +19°C° 0 mm 1 mps 699 mmHg 40%
22:00 +18°C° 0 mm 1 mps 699 mmHg 42%
23:00 +17°C° 0 mm 2 mps 700 mmHg 44%

Day after tomorrow, 13 April, Tuesday

Time Temperature Precipitation Wind Pressure Humidity
00:00 +16°C° 0 mm 1 mps 700 mmHg 47%
01:00 +15°C° 0 mm 1 mps 700 mmHg 49%
02:00 +15°C° 0 mm 1 mps 700 mmHg 51%
03:00 +14°C° 0 mm 1 mps 700 mmHg 52%
04:00 +13°C° 0 mm 0 mps 700 mmHg 53%
05:00 +13°C° 0 mm 0 mps 700 mmHg 54%
06:00 +13°C° 0 mm 0 mps 701 mmHg 52%
07:00 +14°C° 0 mm 0 mps 701 mmHg 51%
08:00 +15°C° 0 mm 0 mps 702 mmHg 49%
09:00 +16°C° 0 mm 1 mps 702 mmHg 47%
10:00 +17°C° 0 mm 2 mps 702 mmHg 45%
11:00 +18°C° 0 mm 2 mps 702 mmHg 43%
12:00 +19°C° 0 mm 2 mps 702 mmHg 42%
13:00 +20°C° 0 mm 3 mps 702 mmHg 40%
14:00 +20°C° 0 mm 3 mps 702 mmHg 38%
15:00 +20°C° 0 mm 3 mps 702 mmHg 39%
16:00 +20°C° 0 mm 3 mps 702 mmHg 40%
17:00 +20°C° 0 mm 3 mps 702 mmHg 40%
18:00 +19°C° 0 mm 2 mps 702 mmHg 44%
19:00 +18°C° 0 mm 2 mps 702 mmHg 48%
20:00 +18°C° 0 mm 1 mps 703 mmHg 51%
21:00 +18°C° 0 mm 1 mps 703 mmHg 53%
22:00 +18°C° 0 mm 1 mps 702 mmHg 54%
23:00 +16°C° 0 mm 0 mps 702 mmHg 55%

14 April, Wednesday

Time Temperature Precipitation Wind Pressure Humidity
00:00 +15°C° 0 mm 0 mps 702 mmHg 57%
01:00 +15°C° 0 mm 1 mps 701 mmHg 59%
02:00 +15°C° 0 mm 1 mps 701 mmHg 60%
03:00 +14°C° 0 mm 1 mps 701 mmHg 62%
04:00 +14°C° 0 mm 1 mps 701 mmHg 64%
05:00 +13°C° 0 mm 1 mps 701 mmHg 66%
06:00 +14°C° 0 mm 1 mps 701 mmHg 62%
07:00 +16°C° 0 mm 1 mps 702 mmHg 58%
08:00 +18°C° 0 mm 1 mps 702 mmHg 54%
09:00 +19°C° 0 mm 1 mps 702 mmHg 50%
10:00 +21°C° 0 mm 1 mps 701 mmHg 45%
11:00 +23°C° 0 mm 1 mps 701 mmHg 40%
12:00 +23°C° 0 mm 1 mps 701 mmHg 37%
13:00 +24°C° 0 mm 2 mps 700 mmHg 35%
14:00 +25°C° 0 mm 2 mps 700 mmHg 32%
15:00 +25°C° 0 mm 2 mps 699 mmHg 32%
16:00 +25°C° 0 mm 2 mps 699 mmHg 32%
17:00 +25°C° 0 mm 2 mps 698 mmHg 33%
18:00 +24°C° 0 mm 1 mps 698 mmHg 36%
19:00 +22°C° 0 mm 1 mps 698 mmHg 39%
20:00 +19°C° 0 mm 0 mps 698 mmHg 43%
21:00 +20°C° 0 mm 1 mps 697 mmHg 45%
22:00 +19°C° 0 mm 1 mps 697 mmHg 48%
23:00 +18°C° 0 mm 2 mps 697 mmHg 50%

15 April, Thursday

Time Temperature Precipitation Wind Pressure Humidity
00:00 +17°C° 0 mm 2 mps 696 mmHg 50%
01:00 +17°C° 0 mm 2 mps 696 mmHg 50%
02:00 +18°C° 0 mm 1 mps 696 mmHg 51%
03:00 +18°C° 0 mm 1 mps 696 mmHg 50%
04:00 +16°C° 0 mm 1 mps 696 mmHg 49%
05:00 +16°C° 0 mm 1 mps 696 mmHg 47%
06:00 +18°C° 0 mm 1 mps 697 mmHg 45%
07:00 +19°C° 0 mm 1 mps 697 mmHg 43%
08:00 +20°C° 0 mm 1 mps 698 mmHg 41%
09:00 +22°C° 0 mm 1 mps 698 mmHg 38%
10:00 +23°C° 0 mm 1 mps 698 mmHg 36%
11:00 +25°C° 0 mm 1 mps 698 mmHg 34%
12:00 +25°C° 0 mm 2 mps 698 mmHg 33%
13:00 +25°C° 0 mm 2 mps 698 mmHg 33%
14:00 +26°C° 0 mm 2 mps 698 mmHg 32%
15:00 +26°C° 0 mm 2 mps 698 mmHg 33%
16:00 +26°C° 0 mm 2 mps 698 mmHg 33%
17:00 +25°C° 0 mm 2 mps 698 mmHg 34%
18:00 +24°C° 0.1 mm 1 mps 698 mmHg 38%
19:00 +22°C° 0.1 mm 1 mps 698 mmHg 42%
20:00 +21°C° 0.1 mm 1 mps 698 mmHg 47%
21:00 +20°C° 0 mm 1 mps 698 mmHg 49%
22:00 +20°C° 0 mm 1 mps 698 mmHg 51%
23:00 +18°C° 0 mm 2 mps 697 mmHg 53%

16 April, Friday

Time Temperature Precipitation Wind Pressure Humidity
00:00 +18°C° 0 mm 2 mps 697 mmHg 53%
01:00 +18°C° 0 mm 2 mps 697 mmHg 54%
02:00 +18°C° 0 mm 1 mps 697 mmHg 54%
03:00 +18°C° 0 mm 1 mps 697 mmHg 54%
04:00 +18°C° 0 mm 1 mps 697 mmHg 53%
05:00 +18°C° 0 mm 1 mps 697 mmHg 53%
06:00 +19°C° 0 mm 1 mps 697 mmHg 50%
07:00 +18°C° 0 mm 0 mps 697 mmHg 48%
08:00 +19°C° 0 mm 0 mps 697 mmHg 45%
09:00 +22°C° 0 mm 1 mps 697 mmHg 42%
10:00 +24°C° 0 mm 1 mps 697 mmHg 39%
11:00 +25°C° 0 mm 1 mps 697 mmHg 35%
12:00 +26°C° 0 mm 2 mps 697 mmHg 33%
13:00 +27°C° 0 mm 2 mps 696 mmHg 31%
14:00 +28°C° 0 mm 2 mps 696 mmHg 29%
15:00 +27°C° 0.1 mm 3 mps 695 mmHg 30%
16:00 +27°C° 0.1 mm 3 mps 695 mmHg 31%
17:00 +26°C° 0.1 mm 3 mps 695 mmHg 32%
18:00 +25°C° 0.1 mm 4 mps 696 mmHg 35%
19:00 +22°C° 0.1 mm 4 mps 696 mmHg 38%
20:00 +20°C° 0.1 mm 5 mps 697 mmHg 41%
21:00 +19°C° 0.2 mm 4 mps 697 mmHg 45%
22:00 +19°C° 0.2 mm 3 mps 698 mmHg 49%
23:00 +18°C° 0.2 mm 3 mps 699 mmHg 52%
Show more